Time,TemperatureF,DewpointF,PressureIn,WindDirection,WindDirectionDegrees,WindSpeedMPH,WindSpeedGustMPH,Humidity,HourlyPrecipIn,Conditions,Clouds,dailyrainin,SoftwareType,DateUTC
2013-04-06 00:02:00,34.0,34.0,-100.00,East,95,7.0,14.0,99,-99.99,,,-99.99,,2013-04-06 05:02:00,
2013-04-06 00:23:00,34.0,34.0,-100.00,ESE,105,8.0,14.0,99,-99.99,,,-99.99,,2013-04-06 05:23:00,
2013-04-06 00:33:00,34.0,34.0,-100.00,ESE,105,8.0,14.0,99,-99.99,,,-99.99,,2013-04-06 05:33:00,
2013-04-06 00:43:00,34.0,34.0,-100.00,ESE,105,8.0,14.0,99,-99.99,,,-99.99,,2013-04-06 05:43:00,
2013-04-06 00:52:00,34.0,34.0,-100.00,ESE,105,8.0,14.0,99,-99.99,,,-99.99,,2013-04-06 05:52:00,
2013-04-06 01:02:00,34.0,34.0,-100.00,ESE,105,8.0,14.0,99,-99.99,,,-99.99,,2013-04-06 06:02:00,
2013-04-06 01:03:00,34.0,34.0,-100.00,ESE,115,6.0,17.0,98,-99.99,,,-99.99,,2013-04-06 06:03:00,
2013-04-06 01:22:00,34.0,34.0,-100.00,ESE,115,6.0,17.0,98,-99.99,,,-99.99,,2013-04-06 06:22:00,
2013-04-06 01:33:00,34.0,34.0,-100.00,ESE,115,6.0,17.0,98,-99.99,,,-99.99,,2013-04-06 06:33:00,
2013-04-06 01:43:00,34.0,34.0,-100.00,ESE,115,6.0,17.0,98,-99.99,,,-99.99,,2013-04-06 06:43:00,
2013-04-06 01:53:00,34.0,34.0,-100.00,ESE,115,6.0,17.0,98,-99.99,,,-99.99,,2013-04-06 06:53:00,
2013-04-06 02:22:00,35.0,33.0,-100.00,ESE,110,8.0,17.0,95,-99.99,,,-99.99,,2013-04-06 07:22:00,
2013-04-06 02:33:00,35.0,33.0,-100.00,ESE,110,8.0,17.0,95,-99.99,,,-99.99,,2013-04-06 07:33:00,
2013-04-06 02:44:00,35.0,33.0,-100.00,ESE,110,8.0,17.0,95,-99.99,,,-99.99,,2013-04-06 07:44:00,
2013-04-06 02:53:00,35.0,33.0,-100.00,ESE,110,8.0,17.0,95,-99.99,,,-99.99,,2013-04-06 07:53:00,
2013-04-06 03:02:00,35.0,33.0,-100.00,ESE,110,8.0,17.0,95,-99.99,,,-99.99,,2013-04-06 08:02:00,
2013-04-06 03:22:00,35.0,31.0,-100.00,ESE,110,10.0,21.0,88,-99.99,,,-99.99,,2013-04-06 08:22:00,
2013-04-06 03:32:00,35.0,31.0,-100.00,ESE,110,10.0,21.0,88,-99.99,,,-99.99,,2013-04-06 08:32:00,
2013-04-06 03:42:00,35.0,31.0,-100.00,ESE,110,10.0,21.0,88,-99.99,,,-99.99,,2013-04-06 08:42:00,
2013-04-06 03:52:00,35.0,31.0,-100.00,ESE,110,10.0,21.0,88,-99.99,,,-99.99,,2013-04-06 08:52:00,
2013-04-06 04:02:00,35.0,31.0,-100.00,ESE,110,10.0,21.0,88,-99.99,,,-99.99,,2013-04-06 09:02:00,
2013-04-06 04:03:00,34.0,30.0,-100.00,ESE,105,13.0,22.0,85,-99.99,,,-99.99,,2013-04-06 09:03:00,
2013-04-06 04:22:00,34.0,30.0,-100.00,ESE,105,13.0,22.0,85,-99.99,,,-99.99,,2013-04-06 09:22:00,
2013-04-06 04:33:00,34.0,30.0,-100.00,ESE,105,13.0,22.0,85,-99.99,,,-99.99,,2013-04-06 09:33:00,
2013-04-06 04:43:00,34.0,30.0,-100.00,ESE,105,13.0,22.0,85,-99.99,,,-99.99,,2013-04-06 09:43:00,
2013-04-06 04:53:00,34.0,30.0,-100.00,ESE,105,13.0,22.0,85,-99.99,,,-99.99,,2013-04-06 09:53:00,
2013-04-06 05:23:00,34.0,27.0,-100.00,ESE,120,12.0,24.0,75,-99.99,,,-99.99,,2013-04-06 10:23:00,
2013-04-06 05:33:00,34.0,27.0,-100.00,ESE,120,12.0,24.0,75,-99.99,,,-99.99,,2013-04-06 10:33:00,
2013-04-06 05:43:00,34.0,27.0,-100.00,ESE,120,12.0,24.0,75,-99.99,,,-99.99,,2013-04-06 10:43:00,
2013-04-06 05:53:00,34.0,27.0,-100.00,ESE,120,12.0,24.0,75,-99.99,,,-99.99,,2013-04-06 10:53:00,
2013-04-06 06:02:00,34.0,27.0,-100.00,ESE,120,12.0,24.0,75,-99.99,,,-99.99,,2013-04-06 11:02:00,
2013-04-06 06:23:00,33.0,25.0,-100.00,SE,135,11.0,21.0,70,-99.99,,,-99.99,,2013-04-06 11:23:00,
2013-04-06 06:33:00,33.0,25.0,-100.00,SE,135,11.0,21.0,70,-99.99,,,-99.99,,2013-04-06 11:33:00,
2013-04-06 06:43:00,33.0,25.0,-100.00,SE,135,11.0,21.0,70,-99.99,,,-99.99,,2013-04-06 11:43:00,
2013-04-06 06:53:00,33.0,25.0,-100.00,SE,135,11.0,21.0,70,-99.99,,,-99.99,,2013-04-06 11:53:00,
2013-04-06 07:02:00,33.0,25.0,-100.00,SE,135,11.0,21.0,70,-99.99,,,-99.99,,2013-04-06 12:02:00,
2013-04-06 07:22:00,33.0,24.0,-100.00,ESE,120,9.0,17.0,68,-99.99,,,-99.99,,2013-04-06 12:22:00,
2013-04-06 07:33:00,33.0,24.0,-100.00,ESE,120,9.0,17.0,68,-99.99,,,-99.99,,2013-04-06 12:33:00,
2013-04-06 07:44:00,33.0,24.0,-100.00,ESE,120,9.0,17.0,68,-99.99,,,-99.99,,2013-04-06 12:44:00,
2013-04-06 07:52:00,33.0,24.0,-100.00,ESE,120,9.0,17.0,68,-99.99,,,-99.99,,2013-04-06 12:52:00,
2013-04-06 08:02:00,33.0,24.0,-100.00,ESE,120,9.0,17.0,68,-99.99,,,-99.99,,2013-04-06 13:02:00,
2013-04-06 08:24:00,34.0,24.0,-100.00,ESE,110,11.0,21.0,66,-99.99,,,-99.99,,2013-04-06 13:24:00,
2013-04-06 08:33:00,34.0,24.0,-100.00,ESE,110,11.0,21.0,66,-99.99,,,-99.99,,2013-04-06 13:33:00,
2013-04-06 08:43:00,34.0,24.0,-100.00,ESE,110,11.0,21.0,66,-99.99,,,-99.99,,2013-04-06 13:43:00,
2013-04-06 08:53:00,34.0,24.0,-100.00,ESE,110,11.0,21.0,66,-99.99,,,-99.99,,2013-04-06 13:53:00,
2013-04-06 09:23:00,35.0,23.0,-100.00,SE,130,9.0,19.0,61,-99.99,,,-99.99,,2013-04-06 14:23:00,
2013-04-06 09:33:00,35.0,23.0,-100.00,SE,130,9.0,19.0,61,-99.99,,,-99.99,,2013-04-06 14:33:00,
2013-04-06 09:43:00,35.0,23.0,-100.00,SE,130,9.0,19.0,61,-99.99,,,-99.99,,2013-04-06 14:43:00,
2013-04-06 09:53:00,35.0,23.0,-100.00,SE,130,9.0,19.0,61,-99.99,,,-99.99,,2013-04-06 14:53:00,
2013-04-06 10:02:00,35.0,23.0,-100.00,SE,130,9.0,19.0,61,-99.99,,,-99.99,,2013-04-06 15:02:00,
2013-04-06 10:03:00,38.0,24.0,-100.00,SE,130,11.0,18.0,56,-99.99,,,-99.99,,2013-04-06 15:03:00,
2013-04-06 10:23:00,38.0,24.0,-100.00,SE,130,11.0,18.0,56,-99.99,,,-99.99,,2013-04-06 15:23:00,
2013-04-06 10:33:00,38.0,24.0,-100.00,SE,130,11.0,18.0,56,-99.99,,,-99.99,,2013-04-06 15:33:00,
2013-04-06 10:43:00,38.0,24.0,-100.00,SE,130,11.0,18.0,56,-99.99,,,-99.99,,2013-04-06 15:43:00,
2013-04-06 10:53:00,38.0,24.0,-100.00,SE,130,11.0,18.0,56,-99.99,,,-99.99,,2013-04-06 15:53:00,
2013-04-06 11:23:00,42.0,25.0,-100.00,SE,140,9.0,15.0,51,-99.99,,,-99.99,,2013-04-06 16:23:00,
2013-04-06 11:33:00,42.0,25.0,-100.00,SE,140,9.0,15.0,51,-99.99,,,-99.99,,2013-04-06 16:33:00,
2013-04-06 11:43:00,42.0,25.0,-100.00,SE,140,9.0,15.0,51,-99.99,,,-99.99,,2013-04-06 16:43:00,
2013-04-06 11:53:00,42.0,25.0,-100.00,SE,140,9.0,15.0,51,-99.99,,,-99.99,,2013-04-06 16:53:00,
2013-04-06 12:02:00,42.0,25.0,-100.00,SE,140,9.0,15.0,51,-99.99,,,-99.99,,2013-04-06 17:02:00,
2013-04-06 12:03:00,45.0,26.0,-100.00,SE,130,9.0,20.0,47,-99.99,,,-99.99,,2013-04-06 17:03:00,
2013-04-06 12:22:00,45.0,26.0,-100.00,SE,130,9.0,20.0,47,-99.99,,,-99.99,,2013-04-06 17:22:00,
2013-04-06 12:33:00,45.0,26.0,-100.00,SE,130,9.0,20.0,47,-99.99,,,-99.99,,2013-04-06 17:33:00,
2013-04-06 12:43:00,45.0,26.0,-100.00,SE,130,9.0,20.0,47,-99.99,,,-99.99,,2013-04-06 17:43:00,
2013-04-06 12:52:00,45.0,26.0,-100.00,SE,130,9.0,20.0,47,-99.99,,,-99.99,,2013-04-06 17:52:00,
2013-04-06 13:24:00,47.0,27.0,-100.00,SE,125,7.0,14.0,47,-99.99,,,-99.99,,2013-04-06 18:24:00,
2013-04-06 13:32:00,47.0,27.0,-100.00,SE,125,7.0,14.0,47,-99.99,,,-99.99,,2013-04-06 18:32:00,
2013-04-06 13:43:00,47.0,27.0,-100.00,SE,125,7.0,14.0,47,-99.99,,,-99.99,,2013-04-06 18:43:00,
2013-04-06 13:52:00,47.0,27.0,-100.00,SE,125,7.0,14.0,47,-99.99,,,-99.99,,2013-04-06 18:52:00,
2013-04-06 14:02:00,47.0,27.0,-100.00,SE,125,7.0,14.0,47,-99.99,,,-99.99,,2013-04-06 19:02:00,
2013-04-06 14:23:00,48.0,29.0,-100.00,SE,135,5.0,11.0,47,-99.99,,,-99.99,,2013-04-06 19:23:00,
2013-04-06 14:33:00,48.0,29.0,-100.00,SE,135,5.0,11.0,47,-99.99,,,-99.99,,2013-04-06 19:33:00,
2013-04-06 14:42:00,48.0,29.0,-100.00,SE,135,5.0,11.0,47,-99.99,,,-99.99,,2013-04-06 19:42:00,
2013-04-06 14:54:00,48.0,29.0,-100.00,SE,135,5.0,11.0,47,-99.99,,,-99.99,,2013-04-06 19:54:00,
2013-04-06 15:02:00,48.0,29.0,-100.00,SE,135,5.0,11.0,47,-99.99,,,-99.99,,2013-04-06 20:02:00,
2013-04-06 15:23:00,47.0,28.0,-100.00,NE,50,1.0,5.0,48,-99.99,,,-99.99,,2013-04-06 20:23:00,
2013-04-06 15:32:00,47.0,28.0,-100.00,NE,50,1.0,5.0,48,-99.99,,,-99.99,,2013-04-06 20:32:00,
2013-04-06 15:42:00,47.0,28.0,-100.00,NE,50,1.0,5.0,48,-99.99,,,-99.99,,2013-04-06 20:42:00,
2013-04-06 15:52:00,47.0,28.0,-100.00,NE,50,1.0,5.0,48,-99.99,,,-99.99,,2013-04-06 20:52:00,
2013-04-06 16:02:00,47.0,28.0,-100.00,NE,50,1.0,5.0,48,-99.99,,,-99.99,,2013-04-06 21:02:00,
2013-04-06 16:03:00,46.0,31.0,-100.00,ENE,75,2.0,6.0,55,-99.99,,,-99.99,,2013-04-06 21:03:00,
2013-04-06 16:22:00,46.0,31.0,-100.00,ENE,75,2.0,6.0,55,-99.99,,,-99.99,,2013-04-06 21:22:00,
2013-04-06 16:33:00,46.0,31.0,-100.00,ENE,75,2.0,6.0,55,-99.99,,,-99.99,,2013-04-06 21:33:00,
2013-04-06 16:43:00,46.0,31.0,-100.00,ENE,75,2.0,6.0,55,-99.99,,,-99.99,,2013-04-06 21:43:00,
2013-04-06 16:53:00,46.0,31.0,-100.00,ENE,75,2.0,6.0,55,-99.99,,,-99.99,,2013-04-06 21:53:00,
2013-04-06 17:03:00,45.0,33.0,-100.00,South,175,1.0,5.0,62,-99.99,,,-99.99,,2013-04-06 22:03:00,
2013-04-06 17:23:00,45.0,33.0,-100.00,South,175,1.0,5.0,62,-99.99,,,-99.99,,2013-04-06 22:23:00,
2013-04-06 17:35:00,45.0,33.0,-100.00,South,175,1.0,5.0,62,-99.99,,,-99.99,,2013-04-06 22:35:00,
2013-04-06 17:44:00,45.0,33.0,-100.00,South,175,1.0,5.0,62,-99.99,,,-99.99,,2013-04-06 22:44:00,
2013-04-06 17:53:00,45.0,33.0,-100.00,South,175,1.0,5.0,62,-99.99,,,-99.99,,2013-04-06 22:53:00,
2013-04-06 18:23:00,42.0,39.0,-100.00,NNW,340,0.0,1.0,90,-99.99,,,-99.99,,2013-04-06 23:23:00,
2013-04-06 18:34:00,42.0,39.0,-100.00,NNW,340,0.0,1.0,90,-99.99,,,-99.99,,2013-04-06 23:34:00,
2013-04-06 18:43:00,42.0,39.0,-100.00,NNW,340,0.0,1.0,90,-99.99,,,-99.99,,2013-04-06 23:43:00,
2013-04-06 18:53:00,42.0,39.0,-100.00,NNW,340,0.0,1.0,90,-99.99,,,-99.99,,2013-04-06 23:53:00,
2013-04-06 19:02:00,42.0,39.0,-100.00,NNW,340,0.0,1.0,90,-99.99,,,-99.99,,2013-04-07 00:02:00,
2013-04-06 20:03:00,38.0,38.0,-100.00,NNW,335,5.0,12.0,99,-99.99,,,-99.99,,2013-04-07 01:03:00,
2013-04-06 20:24:00,38.0,38.0,-100.00,NNW,335,5.0,12.0,99,-99.99,,,-99.99,,2013-04-07 01:24:00,
2013-04-06 20:33:00,38.0,38.0,-100.00,NNW,335,5.0,12.0,99,-99.99,,,-99.99,,2013-04-07 01:33:00,
2013-04-06 20:43:00,38.0,38.0,-100.00,NNW,335,5.0,12.0,99,-99.99,,,-99.99,,2013-04-07 01:43:00,
2013-04-06 20:53:00,38.0,38.0,-100.00,NNW,335,5.0,12.0,99,-99.99,,,-99.99,,2013-04-07 01:53:00,
2013-04-06 21:24:00,38.0,37.0,-100.00,NW,315,6.0,11.0,99,-99.99,,,-99.99,,2013-04-07 02:24:00,
2013-04-06 21:33:00,38.0,37.0,-100.00,NW,315,6.0,11.0,99,-99.99,,,-99.99,,2013-04-07 02:33:00,
2013-04-06 21:43:00,38.0,37.0,-100.00,NW,315,6.0,11.0,99,-99.99,,,-99.99,,2013-04-07 02:43:00,
2013-04-06 21:52:00,38.0,37.0,-100.00,NW,315,6.0,11.0,99,-99.99,,,-99.99,,2013-04-07 02:52:00,
2013-04-06 22:02:00,38.0,37.0,-100.00,NW,315,6.0,11.0,99,-99.99,,,-99.99,,2013-04-07 03:02:00,
2013-04-06 22:03:00,37.0,37.0,-100.00,NW,315,7.0,12.0,99,-99.99,,,-99.99,,2013-04-07 03:03:00,
2013-04-06 22:23:00,37.0,37.0,-100.00,NW,315,7.0,12.0,99,-99.99,,,-99.99,,2013-04-07 03:23:00,
2013-04-06 22:35:00,37.0,37.0,-100.00,NW,315,7.0,12.0,99,-99.99,,,-99.99,,2013-04-07 03:35:00,
2013-04-06 22:44:00,37.0,37.0,-100.00,NW,315,7.0,12.0,99,-99.99,,,-99.99,,2013-04-07 03:44:00,
2013-04-06 22:54:00,37.0,37.0,-100.00,NW,315,7.0,12.0,99,-99.99,,,-99.99,,2013-04-07 03:54:00,
2013-04-06 23:23:00,36.0,35.0,-100.00,NNW,340,9.0,18.0,97,-99.99,,,-99.99,,2013-04-07 04:23:00,
2013-04-06 23:32:00,36.0,35.0,-100.00,NNW,340,9.0,18.0,97,-99.99,,,-99.99,,2013-04-07 04:32:00,
2013-04-06 23:43:00,36.0,35.0,-100.00,NNW,340,9.0,18.0,97,-99.99,,,-99.99,,2013-04-07 04:43:00,
2013-04-06 23:53:00,36.0,35.0,-100.00,NNW,340,9.0,18.0,97,-99.99,,,-99.99,,2013-04-07 04:53:00,